This is the latest recevied weather packets stored in our database for station/object F8KHU-13. If no packets are shown the sender has not sent any weather packets the latest 10 day(s).
| Time | Temp. | Humidity | Pressure | Rain* | Wind** | Luminosity | Snow |
|---|---|---|---|---|---|---|---|
| 1788551761 | 17.78° C | 51% | 1017.5 hPa | 0 mm | - | 0 W/m² | - |
| 1788551741 | 17.78° C | 50% | 1017.4 hPa | 0 mm | - | 0 W/m² | - |
| 1788551721 | 17.78° C | 50% | 1017.4 hPa | 0 mm | - | 0 W/m² | - |
| 1788550861 | 17.78° C | 49% | 1017.1 hPa | 0 mm | - | 0 W/m² | - |
| 1788550841 | 17.78° C | 49% | 1017.2 hPa | 0 mm | - | 0 W/m² | - |
| 1788549961 | 17.78° C | 49% | 1017.1 hPa | 0 mm | - | 0 W/m² | - |
| 1788549941 | 17.78° C | 48% | 1017.1 hPa | 0 mm | - | 0 W/m² | - |
| 1788549921 | 17.78° C | 47% | 1017 hPa | 0 mm | - | 0 W/m² | - |
| 1788549062 | 18.33° C | 50% | 1017 hPa | 0 mm | - | 0 W/m² | - |
| 1788549041 | 17.78° C | 50% | 1017 hPa | 0 mm | - | 0 W/m² | - |
| 1788549021 | 18.33° C | 49% | 1017 hPa | 0 mm | - | 0 W/m² | - |
| 1788548162 | 18.33° C | 49% | 1016.7 hPa | 0 mm | - | 0 W/m² | - |
| 1788548142 | 18.33° C | 49% | 1016.8 hPa | 0 mm | - | 0 W/m² | - |
| 1788548122 | 18.33° C | 49% | 1016.7 hPa | 0 mm | - | 0 W/m² | - |
| 1788547262 | 18.33° C | 48% | 1016.4 hPa | 0 mm | - | 0 W/m² | - |
| 1788547241 | 18.33° C | 47% | 1016.4 hPa | 0 mm | - | 0 W/m² | - |
| 1788546342 | 18.89° C | 45% | 1016.2 hPa | 0 mm | - | 0 W/m² | - |
| 1788546322 | 18.89° C | 47% | 1016.3 hPa | 0 mm | - | 0 W/m² | - |
| 1788545462 | 18.89° C | 50% | 1016.1 hPa | 0 mm | - | 0 W/m² | - |
| 1788545442 | 18.89° C | 50% | 1016 hPa | 0 mm | - | 0 W/m² | - |
| 1788545422 | 18.89° C | 48% | 1016 hPa | 0 mm | - | 0 W/m² | - |
| 1788544522 | 18.89° C | 52% | 1016 hPa | 0 mm | - | 0 W/m² | - |
| 1788543662 | 18.89° C | 52% | 1015.8 hPa | 0 mm | - | 0 W/m² | - |
| 1788543622 | 18.89° C | 52% | 1015.9 hPa | 0 mm | - | 0 W/m² | - |
| 1788542742 | 19.44° C | 51% | 1015.9 hPa | 0 mm | - | 0 W/m² | - |
* Rain latest hour (hover to see other rain measurements)
** Current wind speed in m/s (hover to see current wind gust speed)